This is the latest recevied weather packets stored in our database for station/object EA7HQL-10. If no packets are shown the sender has not sent any weather packets the latest 10 day(s).
| Time | Temp. | Humidity | Pressure | Rain* | Wind** | Luminosity | Snow |
|---|---|---|---|---|---|---|---|
| 1777857770 | 18.89° C | 70% | 1011.3 hPa | 0 mm | - | - | - |
| 1777857494 | 18.33° C | 71% | 1011.1 hPa | 0 mm | - | - | - |
| 1777857249 | 18.33° C | 73% | 1011.2 hPa | 0 mm | - | - | - |
| 1777857010 | 18.33° C | 75% | 1011.3 hPa | 0 mm | - | - | - |
| 1777856759 | 18.33° C | 75% | 1011.3 hPa | 0 mm | - | - | - |
| 1777856500 | 18.33° C | 75% | 1011.3 hPa | 0 mm | - | - | - |
| 1777856423 | 18.33° C | 77% | 1011.3 hPa | 0 mm | - | - | - |
| 1777856170 | 18.33° C | 78% | 1011.3 hPa | 0 mm | - | - | - |
| 1777855928 | 18.33° C | 78% | 1011.4 hPa | 0 mm | - | - | - |
| 1777855633 | 18.33° C | 76% | 1011.6 hPa | 0 mm | - | - | - |
| 1777855358 | 18.33° C | 78% | 1011.3 hPa | 0 mm | - | - | - |
| 1777855068 | 18.33° C | 75% | 1011.4 hPa | 0 mm | - | - | - |
| 1777854828 | 18.33° C | 73% | 1011.3 hPa | 0 mm | - | - | - |
| 1777854578 | 18.33° C | 73% | 1011.5 hPa | 0 mm | - | - | - |
| 1777854298 | 18.33° C | 73% | 1011.6 hPa | 0 mm | - | - | - |
| 1777854003 | 18.33° C | 73% | 1011.6 hPa | 0 mm | - | - | - |
| 1777853752 | 17.78° C | 75% | 1011.5 hPa | 0 mm | - | - | - |
| 1777853468 | 17.78° C | 78% | 1011.5 hPa | 0 mm | - | - | - |
| 1777853173 | 17.78° C | 81% | 1011.6 hPa | 0 mm | - | - | - |
| 1777852891 | 17.78° C | 83% | 1011.7 hPa | 0 mm | - | - | - |
| 1777852628 | 17.78° C | 85% | 1011.8 hPa | 0 mm | - | - | - |
| 1777852378 | 17.78° C | 85% | 1011.8 hPa | 0 mm | - | - | - |
| 1777852113 | 17.78° C | 85% | 1011.9 hPa | 0 mm | - | - | - |
| 1777851863 | 17.78° C | 85% | 1011.7 hPa | 0 mm | - | - | - |
| 1777851618 | 17.78° C | 85% | 1011.8 hPa | 0 mm | - | - | - |
* Rain latest hour (hover to see other rain measurements)
** Current wind speed in m/s (hover to see current wind gust speed)